�N����,����,�g�[���i���ԁj���x,�g�[�����x,��g�[���i���ցj���x,����
 2004/01/01, 0:00,18.7,51,11.2,10.6
 2004/01/01, 0:15,18.6,51,11.4,10.6
 2004/01/01, 0:30,18.6,52,11.7,10.6
 2004/01/01, 0:45,17.9,50.5,12.1,10.6
 2004/01/01, 1:00,16.7,50,11.8,10.6
 2004/01/01, 1:15,16,51,11.7,10.6
 2004/01/01, 1:30,15.7,52,11.5,10.6
 2004/01/01, 1:45,15.4,53,11.3,10.6
 2004/01/01, 2:00,15,54,11.1,10.6
 2004/01/01, 2:15,14.4,54,11.1,10.6
 2004/01/01, 2:30,13.5,50,11.2,10.6
 2004/01/01, 2:45,13.2,53.5,11.2,10.5
 2004/01/01, 3:00,12.8,55,11.3,10.5
 2004/01/01, 3:15,12.6,55.5,11.7,10.5
 2004/01/01, 3:30,12.6,57,11.5,10.5
 2004/01/01, 3:45,12.4,57.5,11.1,10.5
 2004/01/01, 4:00,12.2,58,11,10.5
 2004/01/01, 4:15,13.3,61.5,10.8,10.5
 2004/01/01, 4:30,14.8,62,10.5,10.4
 2004/01/01, 4:45,15.4,60.5,10.2,10.4
 2004/01/01, 5:00,15.8,59,10.1,10.4
 2004/01/01, 5:15,15.6,64.5,10,10.4
 2004/01/01, 5:30,16,65,10,10.4
 2004/01/01, 5:45,16.4,65.5,9.9,10.4
 2004/01/01, 6:00,16.5,65,9.9,10.3
 2004/01/01, 6:15,16.6,63.5,9.8,10.3
 2004/01/01, 6:30,16.8,63,9.8,10.3
 2004/01/01, 6:45,16.9,63,9.8,10.3
 2004/01/01, 7:00,16.9,62,9.9,10.3
 2004/01/01, 7:15,16.1,57,9.9,10.3
 2004/01/01, 7:30,16.6,59,9.8,10.3
 2004/01/01, 7:45,17,59,9.8,10.3
 2004/01/01, 8:00,16.9,60,9.7,10.3
 2004/01/01, 8:15,17,59.5,9.6,10.2
 2004/01/01, 8:30,17.1,59,9.7,10.2
 2004/01/01, 8:45,17.1,59,9.6,10.2
 2004/01/01, 9:00,17.1,58,9.6,10.2
 2004/01/01, 9:15,17.1,58,9.5,10.2
 2004/01/01, 9:30,17,58,9.4,10.2
 2004/01/01, 9:45,17,57.5,9.3,10.2
 2004/01/01,10:00,17,57,9.4,10.2
 2004/01/01,10:15,16.8,58,9.2,10.2
 2004/01/01,10:30,16.7,58,9.2,10.2
 2004/01/01,10:45,16.7,58,9.1,10.2
 2004/01/01,11:00,16.8,61,9.1,10.3
 2004/01/01,11:15,16.7,61.5,9.1,10.1
 2004/01/01,11:30,16.2,61,9.1,10.1
 2004/01/01,11:45,15.9,60.5,9.1,10.2
 2004/01/01,12:00,15.2,60,9.1,10.2
 2004/01/01,12:15,14.9,60.5,9,10.2
 2004/01/01,12:30,14.5,55,9.1,10.3
 2004/01/01,12:45,13.4,55,9.1,10.7
 2004/01/01,13:00,12.8,55,9.1,10.8
 2004/01/01,13:15,12.2,56,9,10.8
 2004/01/01,13:30,11.8,56,8.9,10.8
 2004/01/01,13:45,11.4,57,8.9,10.9
 2004/01/01,14:00,11,58,8.8,10.9
 2004/01/01,14:15,10.7,58,8.8,11
 2004/01/01,14:30,10.4,59,8.6,11
 2004/01/01,14:45,10.1,59,8.6,11.1
 2004/01/01,15:00,9.9,60,8.5,11.1
 2004/01/01,15:15,9.6,60,8.4,11.2
 2004/01/01,15:30,9.5,60,8.4,11.2
 2004/01/01,15:45,9.3,60.5,8.3,11.3
 2004/01/01,16:00,9.2,61,8.3,11.3
 2004/01/01,16:15,9.1,61,8.2,11.4
 2004/01/01,16:30,8.9,61,8.1,11.4
 2004/01/01,16:45,8.8,62,8.1,11.4
 2004/01/01,17:00,8.7,62,8.1,11.3
 2004/01/01,17:15,9.6,66,8.1,11.4
 2004/01/01,17:30,10.8,68,8.1,11.4
 2004/01/01,17:45,11.8,71.5,8.2,11.4
 2004/01/01,18:00,12.9,71,8.3,11.5
 2004/01/01,18:15,13.8,69.5,8.4,11.5
 2004/01/01,18:30,14.6,69,8.4,11.6
 2004/01/01,18:45,15.4,65.5,8.6,11.6
 2004/01/01,19:00,16,64,8.7,11.6
 2004/01/01,19:15,16,63.5,8.8,11.7
 2004/01/01,19:30,16.1,62,8.9,11.7
 2004/01/01,19:45,16.2,60.5,9.1,11.8
 2004/01/01,20:00,16.3,60,9.3,11.8
 2004/01/01,20:15,17.1,57,9.4,11.8
 2004/01/01,20:30,17.9,55,9.6,11
 2004/01/01,20:45,17.6,55,9.6,11
 2004/01/01,21:00,17.4,56,9.7,11.1
 2004/01/01,21:15,17.7,55.5,9.9,11.1
 2004/01/01,21:30,17.4,55,9.8,11.1
 2004/01/01,21:45,17.2,55.5,9.9,11.1
 2004/01/01,22:00,17.2,57,10,11.2
 2004/01/01,22:15,17.2,56.5,9.9,11.2
 2004/01/01,22:30,17.2,56,9.8,11.2
 2004/01/01,22:45,17.1,52.5,9.9,11.2
 2004/01/01,23:00,17.3,53,9.9,11.3
 2004/01/01,23:15,17.5,55,10,11.3
 2004/01/01,23:30,17.5,55,10.2,11.3
 2004/01/01,23:45,17.6,55,10.1,11.3
 2004/01/02, 0:00,17.5,55,10,11.3
 2004/01/02, 0:15,17.5,55,10,11.3
 2004/01/02, 0:30,17.5,55,10,11.3
 2004/01/02, 0:45,17.5,54.5,10,11.3
 2004/01/02, 1:00,17.5,55,10,11.3
 2004/01/02, 1:15,17.3,55,9.9,10.9
 2004/01/02, 1:30,17.4,57,10,10.9
 2004/01/02, 1:45,17,59,9.9,10.9
 2004/01/02, 2:00,16.2,58,9.8,10.9
 2004/01/02, 2:15,15.5,57,9.7,10.9
 2004/01/02, 2:30,14.5,53,10,10.9
 2004/01/02, 2:45,13.1,48,10.1,10.9
 2004/01/02, 3:00,11.5,42,9.9,10.9
 2004/01/02, 3:15,11.3,46,9.9,10.9
 2004/01/02, 3:30,11.2,50,9.9,10.9
 2004/01/02, 3:45,11.1,51.5,9.9,10.9
 2004/01/02, 4:00,11.2,53,10.1,10.8
 2004/01/02, 4:15,11.6,55,10.1,10.8
 2004/01/02, 4:30,11.6,53,10,10.8
 2004/01/02, 4:45,11.4,54,9.9,10.8
 2004/01/02, 5:00,11.3,55,10.4,10.8
 2004/01/02, 5:15,11.1,55,10.1,10.8
 2004/01/02, 5:30,11,56,9.8,10.8
 2004/01/02, 5:45,11.6,58,9.6,10.8
 2004/01/02, 6:00,13.2,59,9.5,10.7
 2004/01/02, 6:15,14.1,56.5,9.4,11
 2004/01/02, 6:30,14.6,61,9.4,11.2
 2004/01/02, 6:45,15.1,61.5,9.2,11.2
 2004/01/02, 7:00,15.4,61,9.2,11.2
 2004/01/02, 7:15,16.1,59,9.2,11.1
 2004/01/02, 7:30,16.1,60,9.4,11.1
 2004/01/02, 7:45,16,59,9.3,11.1
 2004/01/02, 8:00,16,58,9.2,11.1
 2004/01/02, 8:15,16.4,58,9.2,11
 2004/01/02, 8:30,16.8,58,9.2,11
 2004/01/02, 8:45,17,57,9.1,11
 2004/01/02, 9:00,17.1,57,9.1,10.9
 2004/01/02, 9:15,17.2,57,9.1,10.9
 2004/01/02, 9:30,17.4,56,9.1,10.9
 2004/01/02, 9:45,17.5,56,9.1,10.9
 2004/01/02,10:00,17.4,56,9.2,10.8
 2004/01/02,10:15,17.5,56,9.1,10.8
 2004/01/02,10:30,17.5,59,9.1,10.8
 2004/01/02,10:45,17.1,56,9.1,10.8
 2004/01/02,11:00,17.2,58,9.1,10.8
 2004/01/02,11:15,17,59.5,9.1,10.8
 2004/01/02,11:30,16.6,59,9,10.8
 2004/01/02,11:45,16.4,58.5,9,10.8
 2004/01/02,12:00,16.1,58,9,10.8
 2004/01/02,12:15,16.1,58,8.9,10.5
 2004/01/02,12:30,15.9,59,8.9,10.2
 2004/01/02,12:45,15.9,58,8.9,10.3
 2004/01/02,13:00,15.8,58,8.8,10.3
 2004/01/02,13:15,15.9,59,8.8,10.4
 2004/01/02,13:30,15.9,60,8.8,10.4
 2004/01/02,13:45,15.9,59.5,8.8,10.5
 2004/01/02,14:00,15.8,59,8.7,10.5
 2004/01/02,14:15,15.6,59.5,8.7,10.6
 2004/01/02,14:30,14.9,60,8.7,10.6
 2004/01/02,14:45,14.4,60.5,8.7,10.6
 2004/01/02,15:00,14,61,8.6,10.7
 2004/01/02,15:15,13.6,60.5,8.6,10.8
 2004/01/02,15:30,13.4,61,8.6,10.8
 2004/01/02,15:45,13.1,62,8.5,10.9
 2004/01/02,16:00,12.8,61,8.5,10.9
 2004/01/02,16:15,12.6,61.5,8.4,10.9
 2004/01/02,16:30,12.4,63,8.4,11
 2004/01/02,16:45,12.2,62.5,8.3,11.1
 2004/01/02,17:00,12,63,8.3,11.1
 2004/01/02,17:15,11.9,63,8.2,11.2
 2004/01/02,17:30,11.6,63,8.1,11.2
 2004/01/02,17:45,11.5,63,8.1,11.3
 2004/01/02,18:00,11.3,65,8.1,11.3
 2004/01/02,18:15,11.2,65,8.1,11.4
 2004/01/02,18:30,11.1,66,8.1,11.4
 2004/01/02,18:45,11,66,8.1,11.4
 2004/01/02,19:00,10.9,67,8.1,11.5
 2004/01/02,19:15,10.8,66,8,11.6
 2004/01/02,19:30,10.7,65,8.1,11.6
 2004/01/02,19:45,10.9,63.5,8.4,11.6
 2004/01/02,20:00,12.1,65,8.5,11.6
 2004/01/02,20:15,13.1,67,8.5,11.7
 2004/01/02,20:30,14,68,8.7,11.7
 2004/01/02,20:45,14.6,66.5,8.9,11.8
 2004/01/02,21:00,14.9,64,9,11.8
 2004/01/02,21:15,15.4,63.5,9.1,11.8
 2004/01/02,21:30,15.9,62,9.2,11.8
 2004/01/02,21:45,15.9,62.5,9.3,11.9
 2004/01/02,22:00,16.3,62,9.4,11.9
 2004/01/02,22:15,16.2,61,9.3,11.9
 2004/01/02,22:30,16.2,61,9.2,11.9
 2004/01/02,22:45,16.2,60.5,9.2,11.9
 2004/01/02,23:00,16,60,9.2,12
 2004/01/02,23:15,15.1,60.5,9.1,12
 2004/01/02,23:30,14.4,61,9.2,12
 2004/01/02,23:45,13.9,61,9.2,12
 2004/01/03, 0:00,13.1,59,9.2,12
 2004/01/03, 0:15,12.9,66,9.2,12.1
 2004/01/03, 0:30,12.6,64,9.4,12.1
 2004/01/03, 0:45,12.8,64,9.4,12.1
 2004/01/03, 1:00,13.9,66,9.3,12.1
 2004/01/03, 1:15,14.5,65,9.3,12.1
 2004/01/03, 1:30,15,64,9.2,12.1
 2004/01/03, 1:45,15.1,63.5,9.2,12.1
 2004/01/03, 2:00,15.2,63,9.2,12.1
 2004/01/03, 2:15,15.4,63,9.1,12.1
 2004/01/03, 2:30,15.5,63,9.1,12.1
 2004/01/03, 2:45,15.5,62.5,9.1,12.1
 2004/01/03, 3:00,15.4,63,9.1,12.1
 2004/01/03, 3:15,15.5,61.5,9.1,12
 2004/01/03, 3:30,15.5,61,9,12
 2004/01/03, 3:45,15.6,63.5,9,12
 2004/01/03, 4:00,15.6,68,9,12
 2004/01/03, 4:15,15.7,67.5,8.9,12
 2004/01/03, 4:30,15.7,65,9,12
 2004/01/03, 4:45,15.7,66,8.9,11.9
 2004/01/03, 5:00,15.6,64,8.9,11.9
 2004/01/03, 5:15,15.7,63,8.9,11.9
 2004/01/03, 5:30,15.5,63,8.8,11.9
 2004/01/03, 5:45,15.6,63.5,8.8,11.9
 2004/01/03, 6:00,16,63,8.8,11.9
 2004/01/03, 6:15,16,64,8.8,11.9
 2004/01/03, 6:30,16.1,64,8.8,11.9
 2004/01/03, 6:45,16.2,64,8.8,11.9
 2004/01/03, 7:00,16.3,63,8.7,11.8
 2004/01/03, 7:15,16.3,63,8.7,11.8
 2004/01/03, 7:30,16.1,63,8.7,11.8
 2004/01/03, 7:45,16,62,8.7,11.8
 2004/01/03, 8:00,16.2,62,8.7,11.8
 2004/01/03, 8:15,16.2,61,8.7,11.8
 2004/01/03, 8:30,16.2,61,8.7,11.8
 2004/01/03, 8:45,16.4,61,8.7,11.7
 2004/01/03, 9:00,16.5,61,8.7,11.7
 2004/01/03, 9:15,16.5,61,8.7,11.7
 2004/01/03, 9:30,16.7,61,8.7,11.7
 2004/01/03, 9:45,16.9,61,8.7,11.7
 2004/01/03,10:00,17,60,8.7,11.7
 2004/01/03,10:15,17.1,61.5,8.7,11.7
 2004/01/03,10:30,17.2,62,8.6,11.7
 2004/01/03,10:45,17.4,65.5,8.6,12.1
 2004/01/03,11:00,16.5,69,8.6,11.6
 2004/01/03,11:15,15.4,65.5,8.6,11.6
 2004/01/03,11:30,14.8,67,8.5,11.6
 2004/01/03,11:45,14.4,65.5,8.4,11.6
 2004/01/03,12:00,13.9,65,8.4,11.7
 2004/01/03,12:15,13.4,64,8.3,11.7
 2004/01/03,12:30,13.1,64,8.2,11.7
 2004/01/03,12:45,12.7,64,8.1,11.7
 2004/01/03,13:00,12.4,64,8.1,11.7
 2004/01/03,13:15,12.1,63.5,8,11.3
 2004/01/03,13:30,11.8,63,8,10.8
 2004/01/03,13:45,11.6,64,8,10.9
 2004/01/03,14:00,12.5,69,8,11
 2004/01/03,14:15,11.4,61,8,11
 2004/01/03,14:30,10.8,62,8,11
 2004/01/03,14:45,10.4,62.5,7.8,11.1
 2004/01/03,15:00,10,63,7.9,11.2
 2004/01/03,15:15,9.7,63,7.8,11.2
 2004/01/03,15:30,9.4,63,7.7,11.3
 2004/01/03,15:45,9.1,64,7.6,11.3
 2004/01/03,16:00,8.9,64,7.6,11.4
 2004/01/03,16:15,8.6,65,7.4,11.6
 2004/01/03,16:30,8.4,66,7.4,11.7
 2004/01/03,16:45,8.3,66,7.3,11.7
 2004/01/03,17:00,8.2,67,7.3,11.7
 2004/01/03,17:15,8,67.5,7.3,11.8
 2004/01/03,17:30,7.9,68,7.3,11.8
 2004/01/03,17:45,7.8,68,7.3,11.9
 2004/01/03,18:00,7.8,68,7.3,11.9
 2004/01/03,18:15,7.8,69.5,7.4,11.9
 2004/01/03,18:30,7.9,70,7.5,11.3
 2004/01/03,18:45,7.9,71,7.6,11.1
 2004/01/03,19:00,8,72,7.6,11.1
 2004/01/03,19:15,8.2,72.5,7.8,11.1
 2004/01/03,19:30,8.3,73,7.9,11.2
 2004/01/03,19:45,9.6,69,7.9,11.2
 2004/01/03,20:00,13.9,57,8.1,11.3
 2004/01/03,20:15,17.3,50.5,8.2,11.3
 2004/01/03,20:30,20.1,47,8.4,11.3
 2004/01/03,20:45,21.7,45.5,8.7,11.4
 2004/01/03,21:00,22.3,44,8.9,11.4
 2004/01/03,21:15,22.2,43,9.1,11.4
 2004/01/03,21:30,22.3,42,9.3,11.4
 2004/01/03,21:45,22.1,44,9.6,11.4
 2004/01/03,22:00,22.1,44,9.8,11.4
 2004/01/03,22:15,22.1,43,10.1,11.4
 2004/01/03,22:30,22.1,43,10.3,11.5
 2004/01/03,22:45,21.4,36.5,10.6,11.5
 2004/01/03,23:00,20.7,40,10.9,11.5
 2004/01/03,23:15,19.9,41.5,11.4,11.4
 2004/01/03,23:30,19.8,44,11.7,11.4
 2004/01/03,23:45,19.6,47.5,11.9,11.1
 2004/01/04, 0:00,19.3,49,12.1,10.9
 2004/01/04, 0:15,19,49,12.2,10.9
 2004/01/04, 0:30,18.7,50,12.3,10.9
 2004/01/04, 0:45,18.5,53.5,12.6,10.9
 2004/01/04, 1:00,18.7,57,12.6,10.9
 2004/01/04, 1:15,18.6,56,12.4,10.9
 2004/01/04, 1:30,18,50,12.4,10.9
 2004/01/04, 1:45,18.1,56.5,12.2,10.8
 2004/01/04, 2:00,17.9,51,12.3,10.6
 2004/01/04, 2:15,16.7,52,12.1,10.6
 2004/01/04, 2:30,16.2,54,11.8,10.6
 2004/01/04, 2:45,15.7,55,11.6,10.6
 2004/01/04, 3:00,15.3,55,11.4,10.6
 2004/01/04, 3:15,15,56.5,11.2,10.6
 2004/01/04, 3:30,14.4,56,11.3,10.6
 2004/01/04, 3:45,13.9,56,11.4,10.6
 2004/01/04, 4:00,13.1,49,11.5,10.6
 2004/01/04, 4:15,13.9,61.5,11.2,10.6
 2004/01/04, 4:30,15.4,63,11.1,10.6
 2004/01/04, 4:45,16,62.5,11,10.6
 2004/01/04, 5:00,16.3,64,11,10.6
 2004/01/04, 5:15,16.5,64.5,10.8,10.6
 2004/01/04, 5:30,16.8,59,10.8,10.6
 2004/01/04, 5:45,16.9,60,10.6,9.2
 2004/01/04, 6:00,16.9,63,10.6,9.4
 2004/01/04, 6:15,16.9,63.5,10.6,9.4
 2004/01/04, 6:30,16.9,63,10.6,9.5
 2004/01/04, 6:45,17.5,63.5,10.6,9.4
 2004/01/04, 7:00,17.8,63,10.6,9.5
 2004/01/04, 7:15,18,62,10.6,9.4
 2004/01/04, 7:30,17.7,64,10.7,9.3
 2004/01/04, 7:45,17.4,64,10.6,9.3
 2004/01/04, 8:00,17.1,63,10.7,9.2
 2004/01/04, 8:15,16.8,63,10.6,9.3
 2004/01/04, 8:30,16.6,63,10.6,9.5
 2004/01/04, 8:45,16.5,63.5,10.6,9.9
 2004/01/04, 9:00,16.4,67,10.6,10.6
 2004/01/04, 9:15,16,64.5,10.5,10.6
 2004/01/04, 9:30,16,65,10.6,10.8
 2004/01/04, 9:45,16.4,66.5,10.6,10.9
 2004/01/04,10:00,16.3,65,10.5,11
 2004/01/04,10:15,16.2,65,10.4,11.6
 2004/01/04,10:30,16.4,64,10.5,11.8
 2004/01/04,10:45,16.3,63.5,10.4,11.6
 2004/01/04,11:00,15.8,60,10.6,11.5
 2004/01/04,11:15,14.8,58,10.6,11.9
 2004/01/04,11:30,14.1,59,10.6,12
 2004/01/04,11:45,13.6,59.5,10.6,12.8
 2004/01/04,12:00,13.1,61,10.6,12.8
 2004/01/04,12:15,12.8,61.5,10.6,12.9
 2004/01/04,12:30,12.5,63,10.5,12.9
 2004/01/04,12:45,12.2,64,10.5,12.9
 2004/01/04,13:00,12,65,10.4,13.1
 2004/01/04,13:15,11.9,65.5,10.4,13.2
 2004/01/04,13:30,11.7,66,10.3,13.1
 2004/01/04,13:45,11.6,66,10.2,13.3
 2004/01/04,14:00,11.4,66,10.2,13.3
 2004/01/04,14:15,11.2,67,10.2,13.4
 2004/01/04,14:30,11.1,67,10.1,13.5
 2004/01/04,14:45,11.1,67.5,10.1,13.5
 2004/01/04,15:00,10.9,68,10,13.4
 2004/01/04,15:15,10.9,68.5,10,13.5
 2004/01/04,15:30,10.9,70,9.9,13.6
 2004/01/04,15:45,10.6,71,9.9,13.6
 2004/01/04,16:00,10.6,72,9.9,13.6
 2004/01/04,16:15,10.6,72,9.9,13.8
 2004/01/04,16:30,10.5,72,9.9,13.5
 2004/01/04,16:45,10.4,72,9.8,13.5
 2004/01/04,17:00,10.3,72,9.8,13.5
 2004/01/04,17:15,10.2,71.5,9.8,13.2
 2004/01/04,17:30,10.2,71,9.8,13.2
 2004/01/04,17:45,10.1,72,9.9,13.1
 2004/01/04,18:00,10.1,73,9.9,13
 2004/01/04,18:15,10.1,72.5,10,12.9
 2004/01/04,18:30,10.1,73,10.2,12.8
 2004/01/04,18:45,10.1,74.5,10.3,12.8
 2004/01/04,19:00,10.2,74,10.4,12.6
 2004/01/04,19:15,10.2,74,10.4,12.6
 2004/01/04,19:30,10.4,74,10.5,12.6
 2004/01/04,19:45,10.4,74,10.6,12.4
 2004/01/04,20:00,10.5,74,10.6,12.4
 2004/01/04,20:15,10.5,73.5,10.6,12.1
 2004/01/04,20:30,11.7,69,10.8,11.9
 2004/01/04,20:45,14.4,63,10.9,11.8
 2004/01/04,21:00,15.6,65,10.9,11.7
 2004/01/04,21:15,16.2,70.5,11.1,11.6
 2004/01/04,21:30,16.6,68,11.1,11.4
 2004/01/04,21:45,16.8,66,11.1,11.4
 2004/01/04,22:00,17.1,66,11.3,11.3
 2004/01/04,22:15,17.4,65,11.4,10.9
 2004/01/04,22:30,17.9,63,11.5,10.9
 2004/01/04,22:45,18.1,61.5,11.5,10.8
 2004/01/04,23:00,17.9,60,11.5,10.7
 2004/01/04,23:15,18.2,58.5,11.8,10.6
 2004/01/04,23:30,18.7,60,12.1,10.5
 2004/01/04,23:45,18.9,57,12.6,10.4
 2004/01/05, 0:00,18.2,50,12.8,10.3
 2004/01/05, 0:15,17.4,52.5,12.6,10.3
 2004/01/05, 0:30,16.8,56,12.4,10.2
 2004/01/05, 0:45,16.5,57.5,12.5,10.1
 2004/01/05, 1:00,16.3,59,12.5,10.1
 2004/01/05, 1:15,16,57,12.3,9.9
 2004/01/05, 1:30,15.6,62,12.3,9.9
 2004/01/05, 1:45,15.9,67.5,12.1,10.1
 2004/01/05, 2:00,16.6,70,12,10
 2004/01/05, 2:15,16.9,69.5,11.9,9.9
 2004/01/05, 2:30,16.8,68,11.8,9.8
 2004/01/05, 2:45,16.1,66.5,11.6,9.6
 2004/01/05, 3:00,15.6,65,11.6,9.2
 2004/01/05, 3:15,14.9,63.5,11.6,9.4
 2004/01/05, 3:30,14,57,11.8,9.6
 2004/01/05, 3:45,13.6,60.5,11.8,9.6
 2004/01/05, 4:00,13.2,62,11.7,9.6
 2004/01/05, 4:15,14.2,68,11.4,9.6
 2004/01/05, 4:30,15.5,67,11.2,9.5
 2004/01/05, 4:45,16.2,65.5,11.1,9.5
 2004/01/05, 5:00,16.6,64,11,9.4
 2004/01/05, 5:15,16.8,65,10.9,9.4
 2004/01/05, 5:30,16.7,67,10.7,9.3
 2004/01/05, 5:45,16.6,66,10.6,9.2
 2004/01/05, 6:00,16.7,65,10.6,9.1
 2004/01/05, 6:15,17,65,10.5,9.1
 2004/01/05, 6:30,17.3,64,10.5,9
 2004/01/05, 6:45,17.5,67,10.4,8.9
 2004/01/05, 7:00,17.7,69,10.3,8.9
 2004/01/05, 7:15,17.9,70,10.3,9.4
 2004/01/05, 7:30,17.9,69,10.2,9.2
 2004/01/05, 7:45,17.8,67,10.2,9.1
 2004/01/05, 8:00,17.7,68,10,9.2
 2004/01/05, 8:15,17.8,68,10.1,9.2
 2004/01/05, 8:30,18,66,10,9.3
 2004/01/05, 8:45,18,64,9.9,9.6
 2004/01/05, 9:00,18.1,62,9.9,9.6
 2004/01/05, 9:15,18,63.5,9.8,9.6
 2004/01/05, 9:30,17.9,65,9.8,9.7
 2004/01/05, 9:45,17.4,60.5,9.8,9.9
 2004/01/05,10:00,17.5,62,9.8,10.1
 2004/01/05,10:15,17.4,64,9.8,10.2
 2004/01/05,10:30,17.4,60,9.7,10.3
 2004/01/05,10:45,17.2,60,9.6,10.6
 2004/01/05,11:00,17.1,57,9.5,10.7
 2004/01/05,11:15,17,57,9.4,10.9
 2004/01/05,11:30,17,57,9.4,11
 2004/01/05,11:45,16.9,63.5,9.3,11.2
 2004/01/05,12:00,16.8,59,9.2,11.4
 2004/01/05,12:15,16.7,55.5,9.1,11.6
 2004/01/05,12:30,16.6,55,9.1,11.8
 2004/01/05,12:45,15.6,61,9,12.1
 2004/01/05,13:00,14.9,62,9.1,12.2
 2004/01/05,13:15,13.8,56,9.2,12.4
 2004/01/05,13:30,13,57,9.3,12.5
 2004/01/05,13:45,12.6,58.5,9.3,12.6
 2004/01/05,14:00,12.1,60,9.2,12.7
 2004/01/05,14:15,11.7,60.5,9.2,12.8
 2004/01/05,14:30,11.4,62,9.1,12.9
 2004/01/05,14:45,11.1,62.5,9.1,13
 2004/01/05,15:00,10.8,62,9,13.1
 2004/01/05,15:15,10.6,62.5,8.9,13.2
 2004/01/05,15:30,10.4,63,8.8,13.3
 2004/01/05,15:45,10.1,64,8.8,13.3
 2004/01/05,16:00,9.9,64,8.7,13.4
 2004/01/05,16:15,9.8,65,8.6,13.4
 2004/01/05,16:30,9.6,66,8.5,13.2
 2004/01/05,16:45,9.5,66,8.4,13.2
 2004/01/05,17:00,9.7,68,8.4,13.1
 2004/01/05,17:15,11.4,76.5,8.4,12.9
 2004/01/05,17:30,13.2,82,8.5,12.9
 2004/01/05,17:45,14.6,72.5,8.6,12.8
 2004/01/05,18:00,15.6,67,8.7,12.7
 2004/01/05,18:15,16.5,64,8.8,12.6
 2004/01/05,18:30,17.2,61,8.9,12.5
 2004/01/05,18:45,17.9,58.5,9.1,12.4
 2004/01/05,19:00,18.7,56,9.2,12.3
 2004/01/05,19:15,18.9,54.5,9.4,12.2
 2004/01/05,19:30,19.2,54,9.5,12
 2004/01/05,19:45,19.4,52,9.7,12.1
 2004/01/05,20:00,19.9,51,9.9,11.9
 2004/01/05,20:15,20.5,50,10.1,11.9
 2004/01/05,20:30,20.6,48,10.3,11.8
 2004/01/05,20:45,20.5,46.5,10.4,11.6
 2004/01/05,21:00,20.7,46,10.7,11.6
 2004/01/05,21:15,20.6,43.5,10.8,11.4
 2004/01/05,21:30,18.9,35,11,12.1
 2004/01/05,21:45,18.1,44,11.2,11.9
 2004/01/05,22:00,18.5,51,11.4,11.3
 2004/01/05,22:15,18.2,52.5,11.6,11.1
 2004/01/05,22:30,17.5,48,12.4,10.9
 2004/01/05,22:45,16.9,50.5,12.9,10.8
 2004/01/05,23:00,16.4,52,13.3,10.6
 2004/01/05,23:15,16.1,52,13.4,10.6
 2004/01/05,23:30,15.9,51,13.6,10.3
 2004/01/05,23:45,15.6,51.5,13.6,10.3
 2004/01/06, 0:00,15.4,53,13.7,10.5
 2004/01/06, 0:15,15.1,53,13.9,10.4
 2004/01/06, 0:30,14.9,53,13.9,10.2
 2004/01/06, 0:45,14.5,53.5,13.8,10.1
 2004/01/06, 1:00,14.3,54,13.5,10.1
 2004/01/06, 1:15,13.9,53.5,13.2,9.9
 2004/01/06, 1:30,13.3,45,13,9.8
 2004/01/06, 1:45,13.2,53,12.7,9.6
 2004/01/06, 2:00,13,54,12.5,9.6
 2004/01/06, 2:15,12.8,56.5,12.4,9.5
 2004/01/06, 2:30,12.6,57,12.2,9.6
 2004/01/06, 2:45,12.4,58.5,11.9,9.6
 2004/01/06, 3:00,12.2,59,11.7,9.6
 2004/01/06, 3:15,12.1,60,11.6,9.6
 2004/01/06, 3:30,11.9,59,11.5,9.5
 2004/01/06, 3:45,13.2,63.5,11.3,9.4
 2004/01/06, 4:00,14.4,63,11.1,9.3
 2004/01/06, 4:15,14.9,65,11.1,9.3
 2004/01/06, 4:30,15.2,66,10.9,9.1
 2004/01/06, 4:45,16,62.5,10.9,9.1
 2004/01/06, 5:00,16.6,57,10.9,9
 2004/01/06, 5:15,17.2,57,10.7,8.8
 2004/01/06, 5:30,17.5,55,10.7,7.8
 2004/01/06, 5:45,17.5,54,10.6,-9.5
 2004/01/06, 6:00,17.4,61,10.6,-9.8
 2004/01/06, 6:15,17.4,61,10.6,****
 2004/01/06, 6:30,17.4,62,10.5,****
 2004/01/06, 6:45,17.5,61,10.4,****
 2004/01/06, 7:00,17.4,61,10.4,****
 2004/01/06, 7:15,17.5,59.5,10.4,0.5
 2004/01/06, 7:30,18,60,10.3,9.1
 2004/01/06, 7:45,18.2,61,10.3,8.9
 2004/01/06, 8:00,18.5,63,10.3,8.6
 2004/01/06, 8:15,18,68,10.3,8.8
 2004/01/06, 8:30,18.1,71,10.2,8.8
 2004/01/06, 8:45,17.9,67,10.2,8.9
 2004/01/06, 9:00,17.7,65,10.1,9
 2004/01/06, 9:15,17.3,61.5,10.1,9.1
 2004/01/06, 9:30,17.2,61,10,9.2
 2004/01/06, 9:45,17,61,9.9,9.2
 2004/01/06,10:00,16.8,61,9.9,9.3
 2004/01/06,10:15,16.6,60.5,9.9,9.4
 2004/01/06,10:30,16.4,66,9.8,9.5
 2004/01/06,10:45,16.4,67,9.8,9.6
 2004/01/06,11:00,16.3,70,9.7,9.7
 2004/01/06,11:15,16.4,62.5,9.6,9.9
 2004/01/06,11:30,16.5,58,9.6,10
 2004/01/06,11:45,16.3,61,9.6,10.1
 2004/01/06,12:00,15.9,62,9.6,10.3
 2004/01/06,12:15,14.6,55,9.7,10.4
 2004/01/06,12:30,13.7,55,9.8,10.5
 2004/01/06,12:45,13.1,56.5,9.7,10.6
 2004/01/06,13:00,12.5,57,9.6,10.7
 2004/01/06,13:15,12.1,58.5,9.6,10.8
 2004/01/06,13:30,11.8,59,9.5,10.8
 2004/01/06,13:45,11.4,60.5,9.4,10.8
 2004/01/06,14:00,11.2,61,9.4,10.9
 2004/01/06,14:15,10.9,61.5,9.4,11.1
 2004/01/06,14:30,10.7,62,9.3,11.2
 2004/01/06,14:45,10.5,63,9.2,11.2
 2004/01/06,15:00,10.3,64,9.2,11.3
 2004/01/06,15:15,10.1,64,9.1,11.4
 2004/01/06,15:30,10.1,64,9,11.4
 2004/01/06,15:45,9.9,65,9,11.4
 2004/01/06,16:00,9.8,65,8.9,11.5
 2004/01/06,16:15,9.7,65,8.8,11.5
 2004/01/06,16:30,9.5,65,8.7,11.6
 2004/01/06,16:45,9.4,66,8.7,11.6
 2004/01/06,17:00,9.2,64,8.6,11.5
 2004/01/06,17:15,10.5,71,8.6,11.5
 2004/01/06,17:30,11.9,76,8.7,11.4
 2004/01/06,17:45,12.9,83,8.8,11.4
 2004/01/06,18:00,14,78,8.9,11.3
 2004/01/06,18:15,14.4,74.5,9,11.2
 2004/01/06,18:30,14.5,74,9.1,11.1
 2004/01/06,18:45,14.5,73.5,9.1,11.1
 2004/01/06,19:00,14.4,72,9.2,11.1
 2004/01/06,19:15,14.9,69.5,9.4,10.9
 2004/01/06,19:30,15.3,67,9.5,10.7
 2004/01/06,19:45,15.6,67.5,9.7,10.6
 2004/01/06,20:00,15.6,68,9.8,10.5
 2004/01/06,20:15,15.8,65.5,9.9,10.4
 2004/01/06,20:30,15.9,65,10,10.4
 2004/01/06,20:45,16.1,63,10.1,10.2
 2004/01/06,21:00,16.3,63,10.3,10.1
 2004/01/06,21:15,16.2,62.5,10.4,10.1
 2004/01/06,21:30,16.3,62,10.4,10.1
 2004/01/06,21:45,17,59.5,10.5,9.9
 2004/01/06,22:00,17,58,10.4,10.1
 2004/01/06,22:15,16.8,58,10.4,10
 2004/01/06,22:30,17.1,59,10.5,10
 2004/01/06,22:45,17,59.5,10.6,9.9
 2004/01/06,23:00,17,59,10.7,9.9
 2004/01/06,23:15,17.2,60,10.6,9.8
 2004/01/06,23:30,17.3,57,10.5,9.7
 2004/01/06,23:45,17.4,54.5,10.4,9.8
 2004/01/07, 0:00,17.4,53,10.5,9.9
 2004/01/07, 0:15,17.1,54.5,10.4,9.9
 2004/01/07, 0:30,17.1,56,10.3,9.9
 2004/01/07, 0:45,16.9,58.5,10.3,9.9
 2004/01/07, 1:00,16.8,64,10.3,10.3
 2004/01/07, 1:15,16.8,62,10.3,9.9
 2004/01/07, 1:30,16.5,61,10.2,9.8
 2004/01/07, 1:45,16.1,60,10.1,9.4
 2004/01/07, 2:00,16,61,10,9.2
 2004/01/07, 2:15,15.8,60,10.1,9.1
 2004/01/07, 2:30,14.4,53,10.5,9.1
 2004/01/07, 2:45,13.4,56,10.6,9
 2004/01/07, 3:00,12.8,58,10.6,9.2
 2004/01/07, 3:15,12.4,60,10.9,9.2
 2004/01/07, 3:30,12.2,61,10.8,9.2
 2004/01/07, 3:45,12,61.5,10.7,9.2
 2004/01/07, 4:00,11.9,63,10.5,9.1
 2004/01/07, 4:15,13.5,64.5,10.2,9.1
 2004/01/07, 4:30,14.5,69,10.2,9
 2004/01/07, 4:45,15.2,66.5,10,9
 2004/01/07, 5:00,15.6,60,9.9,8.9
 2004/01/07, 5:15,15.7,58,9.7,8.9
 2004/01/07, 5:30,15.8,61,9.6,8.8
 2004/01/07, 5:45,15.9,66,9.4,8.8
 2004/01/07, 6:00,16.4,65,9.4,8.7
 2004/01/07, 6:15,16.7,63.5,9.2,8.6
 2004/01/07, 6:30,16.9,62,9.2,8.5
 2004/01/07, 6:45,17,61,9.1,8.5
 2004/01/07, 7:00,17.1,60,9,8.4
 2004/01/07, 7:15,17.3,62.5,8.9,8.2
 2004/01/07, 7:30,17.4,61,8.7,8.1
 2004/01/07, 7:45,17.2,60.5,8.6,9.2
 2004/01/07, 8:00,17.2,60,8.5,8.8
 2004/01/07, 8:15,16.6,56,8.6,8.8
 2004/01/07, 8:30,16.2,57,8.5,8.8
 2004/01/07, 8:45,16.8,62,8.4,8.8
 2004/01/07, 9:00,16.5,60,8.4,8.8
 2004/01/07, 9:15,17,61.5,8.4,8.9
 2004/01/07, 9:30,17.1,60,8.3,9
 2004/01/07, 9:45,17,59.5,8.3,9.1
 2004/01/07,10:00,16.4,60,8.3,9.2
 2004/01/07,10:15,16.1,64.5,8.1,9.3
 2004/01/07,10:30,15.8,63,8.1,9.4
 2004/01/07,10:45,15.6,63.5,8,9.6
 2004/01/07,11:00,15.2,62,7.9,9.6
 2004/01/07,11:15,15.1,67,7.8,9.8
 2004/01/07,11:30,15.2,67,7.7,10.1
 2004/01/07,11:45,14.4,65.5,7.6,10.4
 2004/01/07,12:00,13.7,64,7.5,10.6
 2004/01/07,12:15,13,63,7.4,10.9
 2004/01/07,12:30,12.5,63,7.3,11.1
 2004/01/07,12:45,11.9,63,7.2,11.2
 2004/01/07,13:00,11.5,63,7.2,11.3
 2004/01/07,13:15,11.9,67,7.1,11.6
 2004/01/07,13:30,11.6,59,7.1,11.7
 2004/01/07,13:45,10.9,59,7.1,11.9
 2004/01/07,14:00,10.2,59,7,12
 2004/01/07,14:15,9.8,58.5,6.8,12.1
 2004/01/07,14:30,9.3,59,6.7,12.2
 2004/01/07,14:45,9,59,6.6,12.4
 2004/01/07,15:00,8.6,59,6.4,12.6
 2004/01/07,15:15,8.2,59,6.2,12.8
 2004/01/07,15:30,7.9,59,6.1,12.9
 2004/01/07,15:45,7.7,59,6,13
 2004/01/07,16:00,7.4,59,5.8,13
 2004/01/07,16:15,7.1,59,5.7,13.1
 2004/01/07,16:30,6.9,59,5.5,13
 2004/01/07,16:45,6.7,59,5.3,13
 2004/01/07,17:00,6.4,58,5.3,13
 2004/01/07,17:15,7,65,5.3,12.9
 2004/01/07,17:30,9.3,81,5.3,12.9
 2004/01/07,17:45,10.9,83.5,5.4,12.8
 2004/01/07,18:00,12.4,83,5.5,12.6
 2004/01/07,18:15,13.9,78,5.6,12.6
 2004/01/07,18:30,15.2,69,5.7,12.5
 2004/01/07,18:45,15.9,62.5,5.8,12.4
 2004/01/07,19:00,16.6,58,6.1,12.4
 2004/01/07,19:15,17.2,56,6.2,12.3
 2004/01/07,19:30,17.3,53,6.1,12.2
 2004/01/07,19:45,17.9,50.5,6.2,12.1
 2004/01/07,20:00,18.3,49,6.2,12.1
 2004/01/07,20:15,19.1,46.5,6.2,12
 2004/01/07,20:30,19.7,44,6.3,12
 2004/01/07,20:45,19.9,44.5,6.6,11.9
 2004/01/07,21:00,19.8,46,6.8,11.8
 2004/01/07,21:15,19.8,45.5,7,11.9
 2004/01/07,21:30,19.2,45,7.1,11.7